QPF
0.13 0.09 0.07 0.05 0.02 0.01 0.00 0.00 0.00 0.00 0.00 0.00 0.01 0.01 0.01 0.00 0.00 0.01 0.01 0.01 0.02 0.02 0.01 0.02 0.02 0.03 0.04 0.07 0.08 0.09 0.09 0.12 0.14 0.14 0.13 0.14 0.15 0.15
0.24 0.19 0.13 0.08 0.05 0.03 0.01 0.00 0.00 0.00 0.00 0.00 0.01 0.01 0.01 0.00 0.00 0.00 0.00 0.01 0.02 0.01 0.02 0.02 0.03 0.03 0.04 0.05 0.06 0.08 0.10 0.11 0.13 0.13 0.13 0.12 0.11 0.09
0.33 0.32 0.26 0.18 0.12 0.08 0.04 0.02 0.01 0.01 0.01 0.01 0.01 0.02 0.01 0.01 0.01 0.00 0.00 0.01 0.01 0.02 0.03 0.03 0.04 0.05 0.05 0.06 0.06 0.08 0.08 0.09 0.11 0.12 0.11 0.09 0.08 0.07
0.31 0.43 0.42 0.34 0.25 0.16 0.10 0.06 0.03 0.01 0.01 0.01 0.02 0.02 0.02 0.02 0.01 0.00 0.00 0.00 0.01 0.02 0.02 0.03 0.04 0.04 0.04 0.05 0.05 0.06 0.06 0.06 0.05 0.05 0.05 0.05 0.04 0.03
0.15 0.30 0.47 0.51 0.41 0.30 0.20 0.12 0.07 0.04 0.03 0.02 0.03 0.02 0.02 0.01 0.01 0.01 0.00 0.00 0.00 0.01 0.01 0.02 0.02 0.03 0.03 0.03 0.03 0.04 0.04 0.04 0.04 0.03 0.02 0.02 0.01 0.01
0.06 0.12 0.25 0.46 0.56 0.48 0.34 0.24 0.17 0.11 0.06 0.04 0.04 0.04 0.02 0.02 0.01 0.01 0.01 0.01 0.00 0.00 0.01 0.01 0.01 0.02 0.02 0.02 0.02 0.03 0.04 0.03 0.03 0.02 0.01 0.01 0.01 0.00
0.02 0.05 0.09 0.20 0.42 0.59 0.55 0.39 0.26 0.17 0.12 0.08 0.06 0.05 0.03 0.02 0.02 0.01 0.01 0.01 0.01 0.00 0.00 0.00 0.00 0.00 0.00 0.01 0.01 0.01 0.01 0.01 0.01 0.01 0.01 0.00 0.00 0.00
0.02 0.02 0.04 0.09 0.17 0.33 0.48 0.52 0.45 0.29 0.16 0.11 0.08 0.06 0.04 0.02 0.01 0.01 0.01 0.01 0.01 0.01 0.01 0.01 0.01 0.00 0.00 0.00 0.00 0.00 0.00 0.00 0.00 0.00 0.00 0.00 0.00 0.00
0.03 0.03 0.02 0.04 0.09 0.15 0.24 0.35 0.40 0.35 0.25 0.16 0.10 0.08 0.06 0.04 0.02 0.01 0.01 0.01 0.01 0.01 0.01 0.01 0.01 0.01 0.01 0.00 0.00 0.00 0.00 0.00 0.00 0.00 0.00 0.00 0.00 0.00
0.05 0.04 0.03 0.03 0.04 0.09 0.16 0.21 0.25 0.25 0.21 0.15 0.12 0.11 0.10 0.09 0.05 0.03 0.01 0.01 0.02 0.02 0.01 0.02 0.02 0.01 0.00 0.00 0.00 0.00 0.00 0.00 0.00 0.00 0.00 0.00 0.00 0.00
0.05 0.04 0.04 0.04 0.02 0.03 0.08 0.16 0.19 0.19 0.17 0.15 0.11 0.11 0.11 0.09 0.07 0.04 0.02 0.02 0.03 0.02 0.01 0.02 0.02 0.01 0.01 0.00 0.00 0.00 0.00 0.00 0.00 0.00 0.00 0.00 0.00 0.00
0.06 0.05 0.02 0.02 0.02 0.01 0.03 0.09 0.14 0.17 0.16 0.13 0.10 0.08 0.07 0.06 0.05 0.03 0.02 0.02 0.03 0.03 0.02 0.01 0.01 0.01 0.00 0.00 0.00 0.00 0.00 0.00 0.00 0.00 0.00 0.00 0.00 0.00
0.04 0.05 0.04 0.00 0.00 0.00 0.02 0.05 0.08 0.13 0.16 0.15 0.12 0.10 0.09 0.07 0.05 0.04 0.03 0.03 0.03 0.03 0.02 0.01 0.01 0.01 0.00 0.00 0.00 0.00 0.00 0.00 0.00 0.00 0.00 0.00 0.00 0.00
0.05 0.05 0.05 0.01 0.00 0.00 0.01 0.03 0.05 0.08 0.13 0.15 0.15 0.12 0.09 0.08 0.07 0.06 0.07 0.07 0.07 0.06 0.03 0.02 0.01 0.01 0.00 0.00 0.00 0.00 0.00 0.00 0.00 0.00 0.00 0.00 0.00 0.00
0.04 0.04 0.03 0.01 0.01 0.01 0.01 0.02 0.05 0.07 0.10 0.13 0.14 0.13 0.09 0.07 0.07 0.10 0.12 0.12 0.12 0.11 0.07 0.03 0.02 0.01 0.01 0.00 0.00 0.00 0.00 0.00 0.00 0.00 0.00 0.00 0.00 0.00
0.02 0.02 0.00 0.00 0.02 0.02 0.02 0.02 0.05 0.08 0.09 0.12 0.13 0.14 0.11 0.09 0.09 0.10 0.11 0.11 0.12 0.13 0.09 0.05 0.02 0.01 0.01 0.00 0.00 0.00 0.00 0.00 0.00 0.00 0.00 0.00 0.00 0.00
0.04 0.05 0.03 0.02 0.03 0.04 0.04 0.05 0.07 0.11 0.13 0.15 0.16 0.15 0.13 0.11 0.10 0.09 0.08 0.07 0.07 0.07 0.07 0.05 0.03 0.01 0.01 0.01 0.00 0.00 0.00 0.00 0.00 0.00 0.00 0.00 0.00 0.00
0.03 0.05 0.04 0.04 0.04 0.06 0.07 0.09 0.12 0.15 0.17 0.18 0.19 0.18 0.14 0.11 0.10 0.09 0.08 0.07 0.05 0.04 0.03 0.03 0.03 0.02 0.01 0.00 0.00 0.00 0.00 0.00 0.00 0.00 0.00 0.00 0.00 0.00
0.02 0.05 0.04 0.03 0.05 0.08 0.10 0.13 0.16 0.18 0.21 0.22 0.24 0.22 0.17 0.11 0.09 0.09 0.09 0.08 0.06 0.04 0.03 0.02 0.02 0.02 0.01 0.01 0.00 0.00 0.00 0.00 0.00 0.00 0.00 0.00 0.00 0.00
0.03 0.04 0.04 0.04 0.05 0.10 0.14 0.17 0.21 0.24 0.26 0.27 0.29 0.28 0.19 0.13 0.10 0.09 0.08 0.07 0.05 0.04 0.03 0.02 0.02 0.01 0.01 0.01 0.00 0.00 0.00 0.00 0.00 0.00 0.00 0.00 0.00 0.00
0.02 0.03 0.04 0.04 0.07 0.11 0.17 0.22 0.27 0.30 0.31 0.30 0.30 0.30 0.23 0.15 0.11 0.09 0.08 0.07 0.05 0.04 0.03 0.03 0.02 0.01 0.00 0.00 0.00 0.00 0.00 0.00 0.00 0.00 0.00 0.00 0.00 0.00
0.03 0.04 0.05 0.06 0.09 0.14 0.19 0.26 0.33 0.37 0.35 0.32 0.29 0.28 0.24 0.17 0.11 0.09 0.07 0.06 0.04 0.03 0.03 0.03 0.01 0.00 0.00 0.01 0.00 0.00 0.00 0.00 0.00 0.00 0.00 0.00 0.00 0.00
0.04 0.05 0.06 0.07 0.11 0.18 0.22 0.29 0.36 0.39 0.35 0.30 0.26 0.24 0.22 0.17 0.11 0.07 0.06 0.05 0.03 0.03 0.02 0.02 0.01 0.00 0.00 0.00 0.00 0.00 0.00 0.00 0.00 0.00 0.00 0.00 0.00 0.00
MSLP
1008.87 1008.75 1008.66 1008.61 1008.58 1008.56 1008.56 1008.57 1008.60 1008.67 1008.79 1008.94 1009.15 1009.39 1009.65 1009.90 1010.15 1010.36 1010.54 1010.68 1010.79 1010.90 1011.02 1011.16 1011.35 1011.60 1011.90 1012.24 1012.62 1013.02 1013.42 1013.80 1014.16 1014.49 1014.78 1015.04 1015.28 1015.51
1008.64 1008.56 1008.47 1008.39 1008.31 1008.22 1008.15 1008.09 1008.08 1008.13 1008.25 1008.45 1008.72 1009.05 1009.41 1009.77 1010.11 1010.40 1010.65 1010.84 1010.98 1011.10 1011.21 1011.35 1011.52 1011.74 1012.01 1012.33 1012.69 1013.06 1013.42 1013.78 1014.11 1014.41 1014.68 1014.92 1015.15 1015.35
1008.35 1008.32 1008.26 1008.17 1008.05 1007.91 1007.77 1007.65 1007.59 1007.61 1007.72 1007.94 1008.27 1008.67 1009.13 1009.60 1010.05 1010.46 1010.80 1011.07 1011.28 1011.45 1011.59 1011.74 1011.91 1012.12 1012.38 1012.67 1013.00 1013.33 1013.67 1013.99 1014.29 1014.57 1014.82 1015.04 1015.24 1015.43
1007.96 1008.00 1008.00 1007.93 1007.81 1007.64 1007.46 1007.30 1007.19 1007.17 1007.27 1007.50 1007.86 1008.32 1008.86 1009.43 1010.00 1010.52 1010.98 1011.35 1011.65 1011.89 1012.09 1012.28 1012.47 1012.68 1012.93 1013.20 1013.50 1013.81 1014.11 1014.41 1014.68 1014.93 1015.16 1015.37 1015.57 1015.74
1007.46 1007.59 1007.66 1007.65 1007.56 1007.41 1007.23 1007.04 1006.91 1006.87 1006.95 1007.17 1007.54 1008.04 1008.64 1009.29 1009.94 1010.57 1011.14 1011.62 1012.03 1012.35 1012.63 1012.87 1013.10 1013.34 1013.59 1013.86 1014.14 1014.42 1014.70 1014.97 1015.23 1015.47 1015.69 1015.89 1016.09 1016.26
1006.84 1007.06 1007.22 1007.30 1007.29 1007.19 1007.04 1006.88 1006.75 1006.70 1006.76 1006.97 1007.33 1007.84 1008.45 1009.15 1009.87 1010.58 1011.24 1011.83 1012.33 1012.76 1013.12 1013.44 1013.73 1014.00 1014.28 1014.55 1014.83 1015.11 1015.38 1015.64 1015.89 1016.13 1016.35 1016.56 1016.76 1016.95
1006.11 1006.42 1006.68 1006.87 1006.96 1006.96 1006.89 1006.77 1006.67 1006.62 1006.67 1006.86 1007.19 1007.68 1008.29 1008.99 1009.75 1010.51 1011.24 1011.92 1012.52 1013.04 1013.50 1013.90 1014.25 1014.59 1014.90 1015.21 1015.51 1015.80 1016.08 1016.35 1016.61 1016.85 1017.09 1017.31 1017.53 1017.73
1005.32 1005.71 1006.07 1006.37 1006.58 1006.69 1006.71 1006.67 1006.61 1006.58 1006.62 1006.78 1007.08 1007.52 1008.10 1008.79 1009.54 1010.33 1011.11 1011.85 1012.54 1013.15 1013.70 1014.19 1014.63 1015.03 1015.41 1015.77 1016.11 1016.43 1016.74 1017.03 1017.31 1017.58 1017.83 1018.07 1018.31 1018.53
1004.54 1004.99 1005.44 1005.84 1006.15 1006.37 1006.48 1006.52 1006.51 1006.50 1006.54 1006.67 1006.92 1007.32 1007.85 1008.51 1009.24 1010.04 1010.85 1011.64 1012.39 1013.08 1013.71 1014.29 1014.81 1015.30 1015.74 1016.17 1016.56 1016.94 1017.29 1017.62 1017.94 1018.23 1018.51 1018.77 1019.02 1019.25
1003.84 1004.33 1004.83 1005.30 1005.70 1006.00 1006.19 1006.29 1006.32 1006.33 1006.36 1006.47 1006.69 1007.03 1007.52 1008.14 1008.85 1009.64 1010.47 1011.30 1012.10 1012.86 1013.56 1014.21 1014.82 1015.37 1015.89 1016.38 1016.84 1017.27 1017.67 1018.05 1018.41 1018.73 1019.03 1019.31 1019.57 1019.80
1003.28 1003.77 1004.29 1004.80 1005.24 1005.59 1005.82 1005.96 1006.02 1006.04 1006.07 1006.16 1006.34 1006.66 1007.12 1007.70 1008.41 1009.19 1010.03 1010.89 1011.73 1012.53 1013.29 1014.00 1014.66 1015.27 1015.85 1016.39 1016.90 1017.39 1017.84 1018.27 1018.66 1019.02 1019.34 1019.63 1019.89 1020.12
1002.88 1003.35 1003.86 1004.35 1004.79 1005.14 1005.39 1005.53 1005.60 1005.62 1005.65 1005.74 1005.91 1006.22 1006.67 1007.25 1007.95 1008.75 1009.60 1010.47 1011.34 1012.17 1012.95 1013.69 1014.38 1015.02 1015.63 1016.21 1016.76 1017.28 1017.77 1018.24 1018.66 1019.04 1019.38 1019.68 1019.94 1020.17
1002.62 1003.05 1003.50 1003.95 1004.35 1004.67 1004.89 1005.02 1005.08 1005.10 1005.14 1005.23 1005.42 1005.74 1006.21 1006.81 1007.53 1008.35 1009.21 1010.10 1010.97 1011.81 1012.60 1013.33 1014.01 1014.65 1015.26 1015.84 1016.40 1016.94 1017.46 1017.95 1018.39 1018.80 1019.15 1019.46 1019.72 1019.95
1002.46 1002.81 1003.19 1003.57 1003.89 1004.15 1004.32 1004.42 1004.46 1004.49 1004.54 1004.67 1004.90 1005.26 1005.77 1006.42 1007.18 1008.02 1008.91 1009.80 1010.67 1011.49 1012.25 1012.95 1013.59 1014.19 1014.77 1015.33 1015.87 1016.41 1016.93 1017.43 1017.89 1018.31 1018.69 1019.01 1019.29 1019.53
1002.31 1002.58 1002.87 1003.15 1003.39 1003.57 1003.68 1003.75 1003.78 1003.82 1003.91 1004.08 1004.37 1004.80 1005.37 1006.08 1006.89 1007.77 1008.67 1009.57 1010.42 1011.20 1011.91 1012.55 1013.13 1013.67 1014.19 1014.70 1015.21 1015.73 1016.24 1016.74 1017.22 1017.66 1018.05 1018.40 1018.70 1018.97
1002.09 1002.27 1002.47 1002.65 1002.81 1002.92 1002.99 1003.03 1003.07 1003.13 1003.26 1003.49 1003.85 1004.36 1005.01 1005.78 1006.64 1007.55 1008.47 1009.36 1010.18 1010.92 1011.57 1012.14 1012.65 1013.12 1013.57 1014.02 1014.49 1014.97 1015.47 1015.97 1016.45 1016.91 1017.34 1017.72 1018.06 1018.37
1001.75 1001.85 1001.96 1002.07 1002.16 1002.22 1002.26 1002.29 1002.34 1002.45 1002.63 1002.93 1003.36 1003.94 1004.66 1005.48 1006.39 1007.33 1008.25 1009.13 1009.92 1010.62 1011.21 1011.72 1012.16 1012.56 1012.95 1013.34 1013.77 1014.22 1014.70 1015.20 1015.70 1016.19 1016.64 1017.06 1017.45 1017.81
1001.29 1001.32 1001.37 1001.42 1001.47 1001.51 1001.54 1001.59 1001.67 1001.82 1002.05 1002.41 1002.91 1003.54 1004.31 1005.17 1006.10 1007.05 1007.97 1008.84 1009.61 1010.27 1010.82 1011.28 1011.67 1012.03 1012.37 1012.73 1013.12 1013.56 1014.03 1014.53 1015.04 1015.55 1016.04 1016.50 1016.93 1017.34
1000.74 1000.73 1000.74 1000.77 1000.80 1000.85 1000.90 1000.98 1001.10 1001.29 1001.57 1001.97 1002.50 1003.17 1003.95 1004.82 1005.75 1006.70 1007.61 1008.46 1009.21 1009.86 1010.39 1010.84 1011.21 1011.54 1011.87 1012.21 1012.59 1013.02 1013.49 1013.99 1014.52 1015.04 1015.55 1016.04 1016.51 1016.95
1000.19 1000.15 1000.15 1000.19 1000.24 1000.32 1000.41 1000.53 1000.69 1000.91 1001.22 1001.63 1002.17 1002.83 1003.60 1004.45 1005.36 1006.28 1007.18 1008.01 1008.76 1009.40 1009.95 1010.40 1010.78 1011.12 1011.45 1011.80 1012.18 1012.61 1013.08 1013.59 1014.12 1014.65 1015.17 1015.67 1016.15 1016.60
999.71 999.68 999.69 999.76 999.85 999.97 1000.11 1000.27 1000.46 1000.70 1001.02 1001.42 1001.93 1002.55 1003.27 1004.08 1004.94 1005.83 1006.70 1007.52 1008.27 1008.93 1009.50 1009.98 1010.40 1010.77 1011.12 1011.49 1011.88 1012.31 1012.77 1013.27 1013.79 1014.31 1014.82 1015.32 1015.79 1016.23
999.37 999.36 999.41 999.52 999.66 999.83 1000.02 1000.21 1000.43 1000.67 1000.97 1001.34 1001.80 1002.36 1003.01 1003.75 1004.55 1005.39 1006.23 1007.04 1007.80 1008.48 1009.08 1009.60 1010.06 1010.47 1010.85 1011.23 1011.63 1012.05 1012.50 1012.98 1013.47 1013.96 1014.44 1014.91 1015.35 1015.77
999.19 999.21 999.31 999.47 999.67 999.88 1000.11 1000.33 1000.55 1000.78 1001.05 1001.37 1001.76 1002.25 1002.82 1003.48 1004.22 1005.00 1005.81 1006.61 1007.37 1008.07 1008.71 1009.27 1009.76 1010.20 1010.60 1010.99 1011.38 1011.77 1012.19 1012.63 1013.07 1013.53 1013.97 1014.39 1014.80 1015.17
Thickness
5663 5668 5674 5682 5688 5693 5698 5700 5701 5703 5709 5711 5716 5718 5720 5720 5720 5723 5724 5720 5721 5721 5720 5719 5717 5715 5713 5711 5710 5708 5707 5706 5704 5703 5701 5699 5699 5700
5649 5655 5663 5671 5679 5685 5690 5694 5698 5700 5705 5711 5711 5715 5714 5716 5714 5716 5715 5714 5714 5715 5714 5713 5711 5709 5707 5706 5704 5701 5700 5699 5698 5696 5695 5694 5694 5694
5636 5642 5650 5657 5665 5673 5680 5685 5690 5693 5695 5703 5708 5708 5706 5708 5709 5710 5711 5710 5708 5707 5706 5705 5703 5702 5700 5698 5696 5695 5693 5691 5690 5689 5688 5688 5688 5688
5623 5628 5635 5643 5650 5658 5667 5675 5681 5686 5688 5692 5697 5700 5699 5700 5701 5701 5702 5702 5700 5697 5697 5696 5694 5692 5691 5689 5688 5686 5685 5684 5683 5682 5681 5681 5681 5681
5610 5615 5621 5627 5636 5643 5652 5662 5670 5676 5681 5686 5689 5692 5692 5693 5692 5692 5692 5692 5691 5688 5687 5685 5684 5682 5681 5679 5677 5676 5676 5675 5674 5673 5672 5672 5672 5673
5596 5602 5609 5614 5622 5629 5637 5646 5655 5664 5670 5676 5681 5683 5684 5684 5685 5683 5681 5682 5683 5682 5678 5676 5674 5672 5670 5668 5667 5666 5665 5665 5664 5664 5664 5664 5664 5664
5581 5588 5596 5603 5609 5616 5624 5632 5639 5649 5658 5665 5671 5674 5676 5676 5677 5677 5675 5673 5671 5672 5672 5670 5668 5665 5661 5657 5656 5655 5655 5655 5655 5655 5655 5654 5654 5654
5567 5575 5583 5589 5596 5602 5610 5619 5626 5634 5644 5654 5662 5667 5670 5673 5674 5672 5669 5667 5663 5662 5664 5662 5662 5659 5656 5650 5646 5645 5645 5645 5645 5645 5644 5644 5644 5644
5555 5561 5571 5581 5585 5593 5600 5607 5614 5622 5631 5640 5650 5659 5664 5668 5668 5666 5666 5666 5663 5657 5657 5652 5652 5649 5643 5637 5636 5636 5636 5635 5635 5634 5634 5634 5634 5634
5544 5550 5557 5567 5575 5583 5592 5599 5606 5614 5622 5631 5640 5649 5655 5660 5662 5662 5661 5656 5651 5649 5651 5645 5642 5638 5634 5628 5625 5625 5626 5625 5625 5625 5625 5625 5625 5625
5537 5544 5549 5555 5561 5568 5581 5591 5599 5606 5613 5621 5628 5636 5642 5649 5653 5653 5650 5648 5642 5639 5641 5641 5635 5631 5626 5621 5616 5616 5616 5616 5616 5616 5616 5616 5617 5617
5532 5539 5541 5546 5549 5555 5568 5579 5589 5599 5608 5615 5620 5626 5633 5638 5643 5647 5648 5647 5642 5636 5635 5636 5632 5629 5621 5617 5613 5610 5608 5607 5607 5607 5608 5608 5610 5614
5530 5535 5540 5538 5541 5546 5555 5570 5580 5590 5601 5609 5615 5621 5626 5631 5636 5641 5645 5648 5646 5643 5638 5636 5632 5632 5628 5618 5613 5610 5607 5604 5602 5601 5601 5602 5605 5608
5524 5532 5536 5534 5535 5539 5548 5558 5567 5576 5591 5601 5610 5616 5622 5627 5631 5635 5637 5640 5643 5644 5639 5637 5634 5632 5627 5620 5614 5610 5608 5605 5604 5602 5600 5598 5599 5601
5519 5524 5527 5528 5530 5536 5541 5549 5558 5572 5585 5595 5605 5614 5620 5624 5625 5625 5626 5628 5630 5630 5629 5631 5631 5628 5626 5622 5617 5612 5609 5606 5604 5603 5600 5598 5598 5597
5513 5518 5519 5523 5530 5537 5542 5546 5557 5570 5580 5589 5600 5608 5613 5617 5619 5620 5619 5619 5618 5617 5618 5620 5623 5623 5624 5621 5618 5612 5610 5607 5604 5602 5601 5599 5598 5598
5517 5521 5527 5532 5536 5541 5546 5552 5559 5566 5574 5583 5593 5601 5607 5612 5614 5614 5614 5614 5615 5613 5611 5613 5616 5618 5620 5620 5616 5612 5609 5606 5603 5601 5598 5598 5597 5596
5515 5524 5530 5536 5541 5545 5549 5552 5557 5564 5572 5580 5589 5596 5602 5607 5609 5609 5610 5612 5613 5612 5612 5614 5615 5613 5613 5612 5612 5610 5608 5606 5603 5597 5597 5597 5597 5595
5516 5527 5533 5537 5542 5546 5549 5553 5558 5563 5569 5577 5584 5591 5597 5602 5605 5606 5607 5609 5610 5610 5612 5613 5614 5613 5612 5609 5605 5606 5607 5605 5601 5596 5595 5597 5598 5598
5521 5529 5534 5538 5542 5545 5549 5552 5556 5561 5565 5572 5580 5587 5593 5598 5602 5604 5606 5608 5608 5609 5609 5610 5612 5613 5613 5612 5609 5604 5602 5603 5600 5597 5597 5596 5597 5592
5524 5530 5535 5539 5542 5544 5546 5549 5553 5557 5562 5568 5575 5584 5590 5596 5600 5603 5604 5602 5606 5607 5607 5607 5610 5610 5613 5612 5608 5604 5601 5597 5598 5598 5597 5596 5594 5592
5527 5531 5534 5537 5539 5541 5543 5545 5549 5553 5558 5564 5573 5581 5588 5594 5598 5600 5601 5601 5602 5604 5604 5604 5603 5605 5606 5605 5605 5603 5599 5593 5590 5590 5591 5592 5596 5593
5528 5531 5533 5535 5536 5537 5540 5543 5546 5550 5555 5563 5571 5579 5586 5591 5594 5597 5598 5599 5600 5601 5601 5600 5599 5600 5602 5602 5603 5603 5597 5592 5590 5588 5588 5588 5586 5584